Alexandroupolis, Greece

7:13 PM EET on February 25, 2017 (GMT +0200)
Dimokritos

Weather History for LGAL - January, 2013

Change the Weather History Date:

Tuesday, January 15, 2013

  Actual Average Record
Temperature  
Mean Temperature 48 °F -  
Max Temperature 57 °F 48 °F 59 °F (2009)
Min Temperature 38 °F 34 °F 23 °F (2012)
Degree Days  
Heating Degree Days 18    
Moisture  
Dew Point 42 °F    
Average Humidity 81    
Maximum Humidity 93    
Minimum Humidity 57    
Precipitation  
Precipitation 0.00 in 0.08 in - ()
Sea Level Pressure  
Sea Level Pressure 30.22 in    
Wind  
Wind Speed - ()    
Max Wind Speed -    
Max Gust Speed -    
Visibility 6.0 miles    
Events      
Averages and records for this station are not official NWS values.
T = Trace of Precipitation, MM = Missing Value Source: Averaged Metar Reports

Daily Weather History Graph

Daily Weather History Graph

Search for Another Location

Airport or City:

Trip Planner

Search our weather history database for the weather conditions in past years. The results will help you decide how hot, cold, wet, or windy it might be!

Date:

Astronomy

Jan. 15, 2013 Rise Set
Actual Time 7:38 AM EET 5:13 PM EET
Civil Twilight 7:08 AM EET 5:43 PM EET
Nautical Twilight 6:34 AM EET 6:17 PM EET
Astronomical Twilight 6:01 AM EET 6:50 PM EET
Moon 9:32 AM EET (1/15) 9:44 PM EET (1/15)
Length of Visible Light 10h 35m
Length of Day
9h 34m
Waxing Crescent, 16% of the Moon is Illuminated
Jan 15
Waxing Crescent
Jan 19
First Quarter
Jan 27
Full
Feb 3
Last Quarter
Feb 10
New

Hourly Weather History & Observations

Time (EET) Temp. Dew Point Humidity Pressure Visibility Wind Dir Wind Speed Gust Speed Precip Events Conditions
12:20 AM 39.2 °F 37.4 °F 93% 30.30 in - North - - N/A   Scattered Clouds
12:50 AM 39.2 °F 37.4 °F 93% 30.30 in - North - - N/A   Scattered Clouds
1:20 AM 39.2 °F 37.4 °F 93% 30.30 in - North - - N/A   Scattered Clouds
1:50 AM 39.2 °F 37.4 °F 93% 30.30 in - North - - N/A   Scattered Clouds
2:00 AM 40 °F 38 °F 88% 30.32 in 6 mi Calm Calm - -   Partly Cloudy
2:20 AM 39.2 °F 37.4 °F 93% 30.30 in - North - - N/A   Scattered Clouds
2:50 AM 39.2 °F 37.4 °F 93% 30.30 in - North - - N/A   Scattered Clouds
3:20 AM 39.2 °F 37.4 °F 93% 30.30 in - North - - N/A   Scattered Clouds
3:50 AM 39.2 °F 37.4 °F 93% 30.30 in - North - - N/A   Scattered Clouds
4:20 AM 39.2 °F 37.4 °F 93% 30.30 in - North - - N/A   Scattered Clouds
4:50 AM 39.2 °F 37.4 °F 93% 30.27 in - North - - N/A   Scattered Clouds
5:20 AM 39.2 °F 37.4 °F 93% 30.27 in - North - - N/A   Scattered Clouds
5:50 AM 39.2 °F 37.4 °F 93% 30.27 in - North - - N/A   Scattered Clouds
6:20 AM 39.2 °F 37.4 °F 93% 30.27 in - North - - N/A   Scattered Clouds
6:50 AM 39.2 °F 37.4 °F 93% 30.27 in - North - - N/A   Scattered Clouds
7:50 AM 39.2 °F 37.4 °F 93% 30.27 in - North - - N/A   Partly Cloudy
8:00 AM 38 °F 37 °F 93% 30.29 in 6 mi Calm Calm - -   Scattered Clouds
8:20 AM 41.0 °F 37.4 °F 87% 30.27 in - North - - N/A   Partly Cloudy
8:50 AM 41.0 °F 37.4 °F 87% 30.27 in - North - - N/A   Scattered Clouds
9:20 AM 42.8 °F 39.2 °F 87% 30.27 in - North - - N/A   Scattered Clouds
9:50 AM 44.6 °F 37.4 °F 76% 30.27 in - North - - N/A   Partly Cloudy
10:20 AM 46.4 °F 41.0 °F 81% 30.27 in - North - - N/A   Partly Cloudy
10:50 AM 51.8 °F 44.6 °F 76% 30.27 in - North - - N/A   Scattered Clouds
11:20 AM 51.8 °F 44.6 °F 76% 30.27 in - North - - N/A   Scattered Clouds
11:50 AM 51.8 °F 44.6 °F 76% 30.24 in - North - - N/A   Scattered Clouds
12:20 PM 53.6 °F 44.6 °F 72% 30.24 in - North - - N/A   Scattered Clouds
12:50 PM 57.2 °F 44.6 °F 63% 30.24 in - North - - N/A   Scattered Clouds
1:20 PM 57.2 °F 44.6 °F 63% 30.24 in - North - - N/A   Scattered Clouds
1:50 PM 57.2 °F 46.4 °F 67% 30.21 in - North - - N/A   Scattered Clouds
2:00 PM 57 °F 46 °F 57% 30.22 in 6 mi Calm Calm - -   Partly Cloudy
2:20 PM 57.2 °F 46.4 °F 67% 30.21 in - North - - N/A   Mostly Cloudy
2:50 PM 57.2 °F 46.4 °F 67% 30.18 in - North - - N/A   Mostly Cloudy
3:20 PM 57.2 °F 46.4 °F 67% 30.18 in - North - - N/A   Mostly Cloudy
3:50 PM 55.4 °F 46.4 °F 72% 30.18 in - North - - N/A   Mostly Cloudy
4:20 PM 53.6 °F 46.4 °F 77% 30.18 in - North - - N/A   Mostly Cloudy
4:50 PM 53.6 °F 46.4 °F 77% 30.18 in - North - - N/A   Mostly Cloudy
5:20 PM 53.6 °F 46.4 °F 77% 30.18 in - North - - N/A   Mostly Cloudy
5:50 PM 51.8 °F 48.2 °F 88% 30.18 in - North - - N/A   Mostly Cloudy
6:20 PM 51.8 °F 48.2 °F 88% 30.18 in - North - - N/A   Mostly Cloudy
6:50 PM 51.8 °F 46.4 °F 82% 30.18 in - North - - N/A   Mostly Cloudy
7:20 PM 51.8 °F 46.4 °F 82% 30.18 in - North - - N/A   Mostly Cloudy
7:50 PM 51.8 °F 44.6 °F 76% 30.15 in - North - - N/A   Mostly Cloudy
8:00 PM 51 °F 45 °F 72% 30.17 in 6 mi Calm Calm - -   Partly Cloudy
8:20 PM 51.8 °F 44.6 °F 76% 30.15 in - North - - N/A   Mostly Cloudy
8:50 PM 50.0 °F 44.6 °F 82% 30.15 in - North - - N/A   Mostly Cloudy
9:20 PM 50.0 °F 44.6 °F 82% 30.15 in - North - - N/A   Mostly Cloudy
9:50 PM 53.6 °F 44.6 °F 72% 30.12 in - North - - N/A   Mostly Cloudy
10:20 PM 53.6 °F 44.6 °F 72% 30.12 in - North - - N/A   Scattered Clouds
10:50 PM 55.4 °F 46.4 °F 72% 30.09 in - North - - N/A   Scattered Clouds
11:20 PM 55.4 °F 46.4 °F 72% 30.09 in - North - - N/A   Scattered Clouds
11:50 PM 55.4 °F 46.4 °F 72% 30.06 in - North - - N/A   Scattered Clouds